FW1480 Weather Reports


Display with metric or nautical units.
time (UTC)temp
F
wind
direction
speed
MPH
gust
MPH
rain 1hr
in
rain 24hr
in
rain mn
in
humidity
%
barometer
mb
20260504194439 70 196 0.0 8.0 0.00 0.00 0.00 36 1010.7
20260504193938 69 207 1.0 6.0 0.00 0.00 0.00 38 1010.7
20260504193438 70 203 1.0 6.0 0.00 0.00 0.00 36 1010.8
20260504192440 70 111 0.0 4.0 0.00 0.00 0.00 36 1010.9
20260504191933 70 210 0.0 7.0 0.00 0.00 0.00 36 1010.9
20260504191426 70 98 1.0 7.0 0.00 0.00 0.00 34 1011.1
20260504190920 69 160 1.0 6.0 0.00 0.00 0.00 36 1011.1
20260504190417 69 174 1.0 6.0 0.00 0.00 0.00 37 1011.1
20260504185917 69 210 1.0 6.0 0.00 0.00 0.00 36 1011.0
20260504184918 69 141 1.0 8.0 0.00 0.00 0.00 36 1011.1
20260504184418 69 162 0.0 4.0 0.00 0.00 0.00 36 1011.2
20260504183917 69 193 0.0 4.0 0.00 0.00 0.00 37 1011.2
20260504183419 69 255 0.0 3.0 0.00 0.00 0.00 36 1011.4
20260504182915 70 163 0.0 4.0 0.00 0.00 0.00 37 1011.1
20260504182415 70 217 1.0 6.0 0.00 0.00 0.00 36 1011.1
20260504181917 69 169 1.0 6.0 0.00 0.00 0.00 37 1011.3
20260504181417 69 105 1.0 9.0 0.00 0.00 0.00 37 1011.3
20260504180915 69 138 1.0 9.0 0.00 0.00 0.00 37 1011.4
20260504180414 69 231 1.0 6.0 0.00 0.00 0.00 37 1011.4
20260504175413 68 208 2.0 5.0 0.00 0.00 0.00 35 1011.6
20260504174913 69 307 2.0 8.0 0.00 0.00 0.00 39 1011.6
20260504174408 69 204 1.0 9.0 0.00 0.00 0.00 36 1011.5
20260504173902 69 208 1.0 9.0 0.00 0.00 0.00 36 1011.6
20260504173356 69 160 1.0 7.0 0.00 0.00 0.00 38 1011.7
20260504172344 69 160 1.0 7.0 0.00 0.00 0.00 39 1011.7
20260504171838 69 148 1.0 7.0 0.00 0.00 0.00 37 1012.0
20260504171331 69 192 1.0 4.0 0.00 0.00 0.00 35 1012.0
20260504170320 69 231 0.0 4.0 0.00 0.00 0.00 38 1012.2
20260504160233 65 223 1.0 9.0 0.00 0.00 0.00 39 1012.6
20260504150727 64 233 1.0 7.0 0.00 0.00 0.00 41 1013.4
20260504140725 62 221 1.0 9.0 0.00 0.00 0.00 43 1013.9
20260504140225 61 308 1.0 9.0 0.00 0.00 0.00 44 1013.9
20260504130719 56 212 0.0 2.0 0.00 0.00 0.00 52 1014.2
20260504130219 56 180 0.0 2.0 0.00 0.00 0.00 54 1014.3
20260504120122 0 0.0 0.0 0.00 0.00 0.00 1014.5
20260504110218 0 0.0 0.0 0.00 0.00 0.00 1014.2
20260504081812 43 310 0.0 0.0 0.00 0.00 0.00 67 1013.8
20260504080756 44 311 0.0 0.0 0.00 0.00 0.00 67 1013.6
20260504080251 44 311 0.0 0.0 0.00 0.00 0.00 67 1013.6
20260504070248 44 97 0.0 0.0 0.00 0.00 0.00 66 1013.5
20260504060248 44 34 0.0 0.0 0.00 0.00 0.00 65 1013.4
20260504050645 44 4 0.0 0.0 0.00 0.00 0.00 65 1013.3
20260504050145 45 4 0.0 0.0 0.00 0.00 0.00 64 1013.2
20260504045645 45 4 0.0 0.0 0.00 0.00 0.00 62 1013.3
20260504045145 45 4 0.0 0.0 0.00 0.00 0.00 62 1013.2
20260504043640 45 348 0.0 0.0 0.00 0.00 0.00 61 1013.3
20260504043137 45 349 0.0 0.0 0.00 0.00 0.00 61 1013.2
20260504042638 45 348 0.0 0.0 0.00 0.00 0.00 61 1013.2
20260504042138 45 347 0.0 0.0 0.00 0.00 0.00 62 1013.2
20260504041637 44 347 0.0 0.0 0.00 0.00 0.00 63 1013.2
20260504040632 45 347 0.0 0.0 0.00 0.00 0.00 63 1013.2
20260504040131 46 347 0.0 0.0 0.00 0.00 0.00 62 1013.2
20260504035628 46 347 0.0 0.0 0.00 0.00 0.00 57 1013.1
20260504035126 46 347 0.0 0.0 0.00 0.00 0.00 57 1013.1
20260504034624 46 347 0.0 0.0 0.00 0.00 0.00 58 1013.1
20260504034120 46 347 0.0 0.0 0.00 0.00 0.00 58 1013.0
20260504033622 46 347 0.0 0.0 0.00 0.00 0.00 59 1013.0
20260504033121 46 347 0.0 0.0 0.00 0.00 0.00 59 1013.1
20260504032621 46 347 0.0 0.0 0.00 0.00 0.00 59 1013.1
20260504031621 46 347 0.0 0.0 0.00 0.00 0.00 59 1013.1
20260504031118 46 347 0.0 0.0 0.00 0.00 0.00 58 1013.1
20260504030619 46 347 0.0 0.0 0.00 0.00 0.00 58 1013.0
20260504030118 46 347 0.0 0.0 0.00 0.00 0.00 58 1013.0
20260504025619 46 347 0.0 0.0 0.00 0.00 0.00 57 1013.0
20260504025120 46 347 0.0 0.0 0.00 0.00 0.00 57 1013.0
20260504024619 46 347 0.0 0.0 0.00 0.00 0.00 58 1013.0
20260504024118 46 347 0.0 0.0 0.00 0.00 0.00 57 1013.1
20260504023118 46 347 0.0 0.0 0.00 0.00 0.00 58 1013.1
20260504022619 46 347 0.0 0.0 0.00 0.00 0.00 57 1013.2
20260504022120 46 347 0.0 0.0 0.00 0.00 0.00 57 1013.2
20260504021618 46 347 0.0 0.0 0.00 0.00 0.00 55 1013.2
20260504021119 46 347 0.0 0.0 0.00 0.00 0.00 55 1013.2
20260504020119 47 347 0.0 0.0 0.00 0.00 0.00 54 1013.1
20260504015618 47 347 0.0 0.0 0.00 0.00 0.00 54 1013.0
20260504015120 47 347 0.0 0.0 0.00 0.00 0.00 53 1013.0
20260504014619 47 347 0.0 0.0 0.00 0.00 0.00 54 1013.1
20260504014118 47 347 0.0 0.0 0.00 0.00 0.00 53 1013.0
20260504013120 48 347 0.0 0.0 0.00 0.00 0.00 52 1013.1
20260504012619 48 347 0.0 0.0 0.00 0.00 0.00 51 1013.0
20260504012120 48 347 0.0 0.0 0.00 0.00 0.00 50 1012.9
20260504011620 49 347 0.0 0.0 0.00 0.00 0.00 51 1012.9
20260504011118 49 6 0.0 0.0 0.00 0.00 0.00 48 1012.8
20260504010620 49 118 0.0 0.0 0.00 0.00 0.00 49 1012.8
20260504010117 49 118 0.0 0.0 0.00 0.00 0.00 48 1012.7
20260504005618 49 118 0.0 0.0 0.00 0.00 0.00 48 1012.5
20260504005114 49 118 0.0 0.0 0.00 0.00 0.00 47 1012.4
20260504004616 49 118 0.0 0.0 0.00 0.00 0.00 47 1012.3
20260504003607 50 118 0.0 0.0 0.00 0.00 0.00 46 1012.2
20260504002555 51 118 0.0 0.0 0.00 0.00 0.00 45 1012.0
20260504002050 51 118 0.0 0.0 0.00 0.00 0.00 46 1011.9
20260504001543 51 98 0.0 0.0 0.00 0.00 0.00 45 1011.7
20260504000530 51 147 0.0 0.0 0.00 0.00 0.00 44 1011.5
20260504000025 51 333 0.0 0.0 0.00 0.00 0.00 43 1011.5
20260503235519 51 333 0.0 0.0 0.00 0.00 0.00 43 1011.6
20260503235013 51 333 0.0 0.0 0.00 0.00 0.00 41 1011.5
20260503234514 52 330 0.0 0.0 0.00 0.00 0.00 41 1011.4
20260503233006 53 276 0.0 0.0 0.00 0.00 0.00 41 1011.3
20260503232507 53 119 0.0 0.0 0.00 0.00 0.00 36 1011.2
20260503232007 53 124 0.0 0.0 0.00 0.00 0.00 38 1011.2
20260503231505 53 124 0.0 0.0 0.00 0.00 0.00 39 1011.1
20260503231002 53 122 0.0 0.0 0.00 0.00 0.00 37 1011.2
20260503225959 54 94 0.0 0.0 0.00 0.00 0.00 35 1011.1
20260503224955 54 96 0.0 1.0 0.00 0.00 0.00 34 1010.9
20260503224454 54 155 0.0 1.0 0.00 0.00 0.00 34 1010.9
20260503223951 54 112 0.0 1.0 0.00 0.00 0.00 34 1010.8
20260503223449 55 160 0.0 6.0 0.00 0.00 0.00 33 1010.8
20260503222946 55 198 0.0 6.0 0.00 0.00 0.00 34 1010.7
20260503222446 55 49 0.0 1.0 0.00 0.00 0.00 35 1010.7
20260503221947 55 112 0.0 3.0 0.00 0.00 0.00 35 1010.8
20260503221445 55 59 0.0 3.0 0.00 0.00 0.00 33 1010.7
20260503220944 55 155 0.0 6.0 0.00 0.00 0.00 34 1010.7
20260503220447 55 305 0.0 6.0 0.00 0.00 0.00 33 1010.8
20260503215940 55 317 0.0 6.0 0.00 0.00 0.00 35 1010.8
20260503215435 55 47 0.0 6.0 0.00 0.00 0.00 34 1010.7
20260503213916 55 41 0.0 7.0 0.00 0.00 0.00 36 1010.9
20260503213410 54 93 0.0 7.0 0.00 0.00 0.00 37 1010.8
20260503212904 54 133 0.0 7.0 0.00 0.00 0.00 39 1010.7
20260503212358 54 240 0.0 7.0 0.00 0.00 0.00 36 1010.7
20260503211853 54 115 0.0 2.0 0.00 0.00 0.00 38 1010.8
20260503211345 53 157 0.0 2.0 0.00 0.00 0.00 37 1010.7
20260503210838 54 296 0.0 5.0 0.00 0.00 0.00 38 1010.7
20260503210339 54 224 0.0 5.0 0.00 0.00 0.00 37 1010.8
20260503205840 54 3 0.0 1.0 0.00 0.00 0.00 38 1010.8
20260503205338 54 155 0.0 1.0 0.00 0.00 0.00 39 1010.8
20260503204836 55 120 0.0 7.0 0.00 0.00 0.00 39 1010.7
20260503204336 55 244 0.0 7.0 0.00 0.00 0.00 39 1010.7
20260503203836 54 125 0.0 5.0 0.00 0.00 0.00 39 1010.6
20260503203333 54 30 1.0 10.0 0.00 0.00 0.00 41 1010.7
20260503202335 54 288 1.0 10.0 0.00 0.00 0.00 39 1010.7
20260503201832 54 68 1.0 10.0 0.00 0.00 0.00 40 1010.7
20260503201331 55 75 0.0 6.0 0.00 0.00 0.00 41 1010.8
20260503200831 55 23 0.0 5.0 0.00 0.00 0.00 40 1010.8
20260503200332 55 198 1.0 5.0 0.00 0.00 0.00 41 1010.8
20260503195833 54 225 1.0 6.0 0.00 0.00 0.00 40 1010.9
20260503195328 54 50 1.0 11.0 0.00 0.00 0.00 40 1011.0
20260503194829 53 114 1.0 11.0 0.00 0.00 0.00 40 1010.9